Vicksburg, LA

7:51 PM CDT on July 27, 2017 (GMT -0500)
Vicksburg Tallulah Regional

Weather History for KTVR - September, 2013

Change the Weather History Date:

Monday, September 2, 2013

  Actual Average Record
Temperature  
Mean Temperature 83 °F 79 °F  
Max Temperature 96 °F 90 °F 104 °F (2000)
Min Temperature 70 °F 67 °F 50 °F (1954)
Degree Days  
Heating Degree Days 0 0  
Month to date heating degree days 0 0  
Since 1 July heating degree days 0 0  
Cooling Degree Days 18 14  
Month to date cooling degree days 35 28  
Year to date cooling degree days 1742 1817  
Growing Degree Days 33 (Base 50)    
Moisture  
Dew Point 73 °F    
Average Humidity 75    
Maximum Humidity 100    
Minimum Humidity 49    
Precipitation  
Precipitation 0.19 in 0.14 in 2.01 in (2008)
Month to date precipitation 0.19 0.27  
Year to date precipitation 48.34 36.84  
Sea Level Pressure  
Sea Level Pressure 29.92 in    
Wind  
Wind Speed 3 mph (West)    
Max Wind Speed 18 mph    
Max Gust Speed 33 mph    
Visibility 6 miles    
Events Fog , Rain , Thunderstorm    
T = Trace of Precipitation, MM = Missing Value Source: NWS Daily Summary

Daily Weather History Graph

Daily Weather History Graph

Search for Another Location

Airport or City:

Trip Planner

Search our weather history database for the weather conditions in past years. The results will help you decide how hot, cold, wet, or windy it might be!

Date:

Astronomy

Sep. 02, 2013 Rise Set
Actual Time 6:39 AM CDT 7:26 PM CDT
Civil Twilight 6:14 AM CDT 7:51 PM CDT
Nautical Twilight 5:45 AM CDT 8:21 PM CDT
Astronomical Twilight 5:15 AM CDT 8:51 PM CDT
Moon 4:02 AM CDT (9/2) 5:36 PM CDT (9/2)
Length of Visible Light 13h 36m
Length of Day
12h 46m
Waning Crescent, 8% of the Moon is Illuminated
Sep 2
Waning Crescent
Sep 5
New
Sep 12
First Quarter
Sep 19
Full
Sep 26
Last Quarter

Hourly Weather History & Observations

Time (CDT) Temp. Heat Index Dew Point Humidity Pressure Visibility Wind Dir Wind Speed Gust Speed Precip Events Conditions
12:53 AM 75.0 °F - 71.1 °F 87% 29.91 in 10.0 mi Calm Calm - N/A   Clear
1:53 AM 72.0 °F - 71.1 °F 97% 29.90 in 10.0 mi Calm Calm - N/A   Clear
2:53 AM 73.0 °F - 70.0 °F 90% 29.90 in 9.0 mi Calm Calm - N/A   Clear
3:53 AM 75.9 °F - 73.0 °F 91% 29.91 in 10.0 mi Variable 3.5 mph - N/A   Clear
4:53 AM 77.0 °F - 73.0 °F 88% 29.92 in 10.0 mi SW 4.6 mph - N/A   Clear
5:53 AM 75.9 °F - 72.0 °F 87% 29.93 in 10.0 mi SW 3.5 mph - N/A   Clear
6:53 AM 75.0 °F - 72.0 °F 90% 29.94 in 9.0 mi Calm Calm - N/A   Clear
7:53 AM 78.1 °F - 73.0 °F 84% 29.96 in 10.0 mi Variable 4.6 mph - N/A   Clear
8:53 AM 82.0 °F 87.9 °F 73.9 °F 76% 29.96 in 10.0 mi WSW 5.8 mph - N/A   Clear
9:53 AM 84.9 °F 93.3 °F 75.0 °F 72% 29.98 in 10.0 mi SSW 6.9 mph - N/A   Clear
10:53 AM 89.1 °F 99.1 °F 75.0 °F 63% 29.99 in 6.0 mi Variable 3.5 mph - N/A   Haze
11:53 AM 93.9 °F 104.0 °F 73.9 °F 52% 29.98 in 10.0 mi Variable 5.8 mph - N/A   Scattered Clouds
12:53 PM 95.0 °F 104.5 °F 73.0 °F 49% 29.96 in 10.0 mi WNW 5.8 mph - N/A   Partly Cloudy
1:14 PM 91.4 °F 98.4 °F 71.6 °F 52% 29.93 in 10.0 mi Variable 3.5 mph - N/A Thunderstorm Scattered Clouds
1:53 PM 88.0 °F 96.5 °F 73.9 °F 63% 29.94 in 10.0 mi NNE 16.1 mph 20.7 mph N/A Thunderstorm Mostly Cloudy
2:28 PM 75.2 °F - 69.8 °F 83% 29.95 in 1.8 mi NNW 11.5 mph 32.2 mph 0.11 in Rain , Thunderstorm Heavy Thunderstorms and Rain
2:43 PM 75.2 °F - 69.8 °F 83% 29.92 in 3.0 mi North 5.8 mph - 0.18 in Rain , Thunderstorm Thunderstorms and Rain
2:53 PM 75.0 °F - 72.0 °F 90% 29.92 in 6.0 mi North 3.5 mph - 0.19 in Rain , Thunderstorm Rain
3:06 PM 78.8 °F - 73.4 °F 83% 29.89 in 9.0 mi SE 6.9 mph - 0.00 in Rain Light Rain
3:53 PM 84.9 °F 95.3 °F 77.0 °F 77% 29.88 in 10.0 mi Calm Calm - 0.00 in   Clear
4:53 PM 84.0 °F 97.3 °F 80.1 °F 88% 29.90 in 8.0 mi Calm Calm - N/A   Clear
5:53 PM 82.0 °F 88.6 °F 75.0 °F 79% 29.89 in 10.0 mi Calm Calm - N/A   Clear
6:53 PM 80.1 °F 85.8 °F 77.0 °F 90% 29.89 in 10.0 mi SE 3.5 mph - N/A   Clear
7:53 PM 78.1 °F - 75.9 °F 93% 29.89 in 8.0 mi Calm Calm - N/A   Clear
8:53 PM 75.0 °F - 73.9 °F 96% 29.91 in 2.5 mi Calm Calm - 0.00 in   Clear
9:00 PM 75.2 °F - 75.2 °F 100% 29.90 in 3.0 mi Calm Calm - N/A   Clear
9:15 PM 75.2 °F - 73.4 °F 94% 29.90 in 1.8 mi Calm Calm - N/A   Clear
9:25 PM 75.2 °F - 75.2 °F 100% 29.91 in 4.0 mi Calm Calm - N/A   Scattered Clouds
9:48 PM 75.2 °F - 73.4 °F 94% 29.90 in 2.0 mi Calm Calm - N/A   Scattered Clouds
9:53 PM 73.9 °F - 73.0 °F 97% 29.92 in 2.0 mi Calm Calm - N/A   Partly Cloudy
10:00 PM 73.4 °F - 73.4 °F 100% 29.91 in 1.2 mi Calm Calm - N/A   Partly Cloudy
10:48 PM 73.4 °F - 73.4 °F 100% 29.91 in 0.5 mi Calm Calm - N/A Fog Fog
10:53 PM 72.0 °F - 72.0 °F 100% 29.92 in 0.5 mi Calm Calm - N/A Fog Fog
11:15 PM 73.4 °F - 71.6 °F 94% 29.91 in 1.2 mi Calm Calm - N/A   Clear
11:26 PM 73.4 °F - 71.6 °F 94% 29.91 in 0.5 mi Calm Calm - N/A Fog Fog
11:48 PM 71.6 °F - 71.6 °F 100% 29.91 in 2.0 mi Calm Calm - N/A   Clear
11:53 PM 71.1 °F - 70.0 °F 96% 29.93 in 2.5 mi Calm Calm - N/A   Clear
11:58 PM 71.6 °F - 69.8 °F 94% 29.91 in 0.8 mi Calm Calm - N/A   Clear